FENGYUN 1C DEB, 29970

Orbit data source: Space-Track

FENGYUN 1C DEB, 29970 is space debris in SSO originally from a launch on Mon, 10 May 1999 UTC launched from the Taiyaun Space Center, China (TSC). Fengyun 1C debris stems from the Chinese weather satellite Fengyun-1C, which was intentionally destroyed by a Chinese anti-satellite missile in 2007. This event dramatically increased the amount of space debris, with thousands of trackable fragments posing hazards to satellites and human spaceflight. The Fengyun 1C debris cloud has become a focal point in discussions about space sustainability and the need for international regulations to prevent the creation of new debris.

Loading next visibility...
Identifier
29970, 1999-025KU
Orbit
SSO
Country
Flag of CNCN / PRC
Related business
Manufacturer
Unknown
Mission
Spacecraft
Bus & Motor
Unknown
Mass
Unknown
Launch date (UTC)
1999-05-10 (27 years ago)
Launch vehicle
Unknown
Launch site
Taiyaun Space Center, China (TSC)
Object type
Payload
Rocket body
Debris
Shape & HBR
Unknown shape, 0.4 m
Radar Cross Section
Medium (>0.1 m² and <1 m²)

Expand to show TLE details & history
Last TLE update: 10 hours ago

TLE from 10 hours ago
0 FENGYUN 1C DEB
1 29970U 99025KU  26164.79460830  .00001617  00000-0  45807-3 0  9990
2 29970  98.8215 104.7785 0090693   2.0747  51.1128 14.44637537 17630
Epoch: 2026-06-13T19:04Z
TLE epoch observation values (Epoch: 2026-06-13T19:04:14.157Z)
Latitude
53.18214°
Longitude
-95.28487°
Altitude
711.686 km
Speed
7.526 km/s
True Right ascension
06h 11m 30s
True Declination
53° 00' 57"
Sunlit
Object was in daylight at epoch
Visualization orbit readout
Latitude
Unknown
Longitude
Unknown
Altitude
Unknown
Speed
Unknown
Apparent Right ascension
Unknown
Apparent Declination
Unknown
Sunlit
N/A
Visualization observer readout
Local Sidereal Time
15:40:00
Azimuth
Unknown
Elevation
Unknown
Doppler factor
Unknown
Orbital elements
Apogee altitude
804.908 km
Perigee altitude
675.788 km
Semi-major axis
7,118.485 km
Eccentricity
0.00907
Inclination
98.8215°
RAAN
104.7785°
Arg. of periapsis
2.0747°
True anomaly
51.92752°
Mean anomaly
51.1128°
Eccentric anomaly
51.51958°
Mean motion
3.61378 °/min
Orbital period
99.62 mins
BSTAR
0.00045807
Loading maneuver chart data...
Computing Atmospheric mass density...

Documentation

Showing up to 5 results
|